SCP
0 0 0 0 0 0 0 0 0 0 0 0 0 0 0 0 0 0 0 0 0 0 0 0 0 0 0 0 0 0 0 0 0 0 0 0 0 0 0 0 0 0 0 0
0 0 0 0 0 0 0 0 0 0 0 0 0 0 0 0 0 0 0 0 0 0 0 0 0 0 0 0 0 0 0 0 0 0 0 0 0 0 0 0 0 0 0 0
0 0 0 0 0 0 0 0 0 0 0 0 0 0 0 0 0 0 0 0 0 -0 0 0 0 0 0 0 0 0 0 0 0 0 0 0 0 0 0 0 0 0 0 0
0 0 0 0 0 0 0 0 0 0 0 0 0 0 0 0 0 0 0 0 0 0 -0 0 0 0 0 0 0 0 0 0 0 0 0 0 0 0 0 0 0 0 0 0
0 0 0 0 0 0 0 0 0 0 0 0 0 0 0 0 0 0 0 0 0 0 0 0 0 0 0 0 0 0 0 0 0 0 0 0 0 0 0 0 0 0 0 0
0 0 0 0 0 0 0 0 0 0 0 0 0 0 0 0 0 0 0 0 0 0 0 0 0 0 0 0 0 0 0 0 0 0 0 0 0 0 0 0 0 0 0 0
0 0 0 0 0 0 0 0 0 0 0 0 0 0 0 0 0 0 0 0 0 0 0 0 0 0 0 0 0 0 0 0 0 0 0 0 0 0 0 0 0 0 0 0
0 0 0 0 0 0 0 0 0 0 0 0 0 0 0 0 0 0 0 0 0 0 0 0 0 0 0 0 0 0 0 0 0 0 0 0 0 0 0 0 0 0 0 0
0 0 0 0 0 0 0 0 0 0 0 0 0 0 0 0 0 0 0 0 0 0 0 0 0 0 0 0 0 0 0 0 0 0 0 0 0 0 0 0 0 0 0 0
0 0 0 0 0 0 0 0 0 0 0 0 0 0 0 0 0 0 0 0 0 0 0 0 0 0 0 0 0 0 0 0 0 0 0 0 0 0 0 0 0 0 0 0
0 0 0 0 0 0 0 0 0 0 0 0 0 0 0 0 0 0 0 0 0 0 0 0 0 0 0 0 0 0 0 0 0 0 0 0 0 0 0 0 0 0 0 0
0 0 0 0 0 0 0 0 0 0 0 0 0 0 0 0 0 0 0 0 0 0 0 0 0 0 0 0 0 0 0 0 0 0 0 0 0 0 0 0 0 0 0 0
0 0 0 0 0 0 0 0 0 0 0 0 0 0 0 0 0 0 0 0 0 0 0 0 0 0 0 0 0 0 0 0 0 0 0 0 0 0 0 0 0 0 0 0
0 0 0 0 0 0 0 0 0 0 0 0 0 0 0 0 0 0 0 0 0 0 0 0 0 0 0 0 0 0 0 0 0 0 0 0 0 0 0 0 0 0 0 0
0 0 0 0 0 0 0 0 0 0 0 0 0 0 0 0 0 0 0 0 0 0 0 0 0 0 0 0 0 0 0 0 0 0 0 0 0 0 0 0 0 0 0 0
0 0 0 0 0 0 0 0 0 0 0 0 0 0 0 0 0 0 0 0 0 0 0 0 0 0 0 0 0 0 0 0 0 0 0 0 0 0 0 0 0 0 0 0
0 0 0 0 0 0 0 0 0 0 0 0 0 0 0 0 0 0 0 0 0 0 0 0 0 0 0 0 0 0 0 0 0 0 0 0 0 0 0 0 0 0 0 0
0 0 0 0 0 0 0 0 0 0 0 0 0 0 0 0 0 0 0 0 0 0 0 0 0 0 0 0 0 0 0 0 0 0 0 0 0 0 0 0 0 0 0 0
0 0 0 0 0 0 0 0 0 0 0 0 0 0 0 0 0 0 0 0 0 0 0 0 0 0 0 0 0 0 0 0 0 0 0 0 0 0 0 0 0 0 0 0
0 0 0 0 0 0 0 0 0 0 0 0 0 0 0 0 0 0 0 0 0 0 0 0 0 0 0 0 0 0 0 0 0 0 0 0 0 0 0 0 0 0 0 0
0 0 0 0 0 0 0 0 0 0 0 0 0 0 0 0 0 0 0 0 0 0 0 0 0 0 0 0 0 0 0 0 0 0 0 0 0 0 0 0 0 0 0 0
0 0 0 0 0 0 0 0 0 0 0 0 0 0 0 0 0 0 0 0 0 0 0 0 0 0 0 0 0 0 0 0 0 0 0 0 0 0 0 0 0 0 0 0
0 0 0 0 0 0 0 0 0 0 0 0 0 0 0 0 0 0 0 0 0 0 0 0 0 0 0 0 0 0 0 0 0 0 0 0 0 0 0 0 0 0 0 0
0 0 0 0 0 0 0 0 0 0 0 0 0 0 0 0 0 0 0 0 0 0 0 0 0 0 0 0 0 0 0 0 0 0 0 0 0 0 0 0 0 0 0 0
0 0 0 0 0 0 0 0 0 0 0 0 0 0 0 0 0 0 0 0 0 0 0 0 0 0 0 0 0 0 0 0 0 0 0 0 0 0 0 0 0 0 0 0
0 0 0 0 0 0 0 0 0 0 0 0 0 0 0 0 0 0 0 0 0 0 0 0 0 0 0 0 0 0 0 0 0 0 0 0 0 0 0 0 0 0 0 0
0 0 0 0 0 0 0 0 0 0 0 0 0 0 0 0 0 0 0 0 0 0 0 0 0 0 0 0 0 0 0 0 0 0 0 0 0 0 0 0 0 0 0 0
Wind_Speed
2 2 8 9 8 9 8 4 3 0 2 0 0 2 3 4 6 6 5 4 5 5 6 7 7 8 8 8 9 9 8 9 10 11 10 9 9 9 9 8 9 8 7 7
4 5 10 10 9 6 6 4 3 4 3 2 1 3 4 6 6 5 5 7 8 8 7 7 8 8 8 9 9 8 9 10 10 9 9 9 9 9 8 8 9 8 8 8
4 4 4 6 5 5 4 4 3 2 1 3 4 6 6 7 6 7 8 9 9 8 8 9 9 9 9 10 9 8 9 9 9 9 9 9 10 8 8 9 8 8 8 8
1 6 4 2 1 4 5 4 4 1 2 4 5 7 6 6 7 8 9 9 9 9 9 9 9 9 9 8 8 8 9 9 9 8 9 9 8 8 8 7 7 7 7 8
3 1 1 0 3 2 0 2 1 2 5 6 6 6 6 8 8 9 10 10 10 9 10 9 9 9 8 8 8 8 8 8 8 8 8 8 8 8 7 6 7 7 6 8
3 1 3 3 3 3 1 3 2 3 5 7 6 7 8 8 9 10 10 9 9 9 9 9 9 9 8 9 9 9 9 9 8 8 8 8 8 8 7 6 7 7 7 7
2 0 2 3 3 4 2 6 5 4 5 5 5 7 10 11 10 9 9 10 9 9 8 8 9 8 9 9 10 9 9 8 8 8 8 8 8 7 7 6 6 6 7 7
2 1 5 3 3 2 5 5 4 4 5 6 8 10 10 9 9 10 9 9 9 8 9 9 9 9 10 11 11 10 10 10 9 9 9 9 7 6 6 6 6 6 6 6
6 5 4 2 4 4 4 3 4 5 7 7 8 9 9 8 8 9 9 9 9 10 11 11 10 10 12 12 11 11 11 11 10 10 9 8 8 8 7 6 6 6 5 5
3 2 3 3 2 1 1 2 4 5 6 6 7 8 9 8 8 9 9 10 10 11 13 13 12 12 12 13 12 11 11 11 9 9 9 8 7 6 6 6 6 6 5 5
1 1 0 2 2 2 2 4 5 6 6 6 7 8 7 8 9 9 10 9 10 12 14 15 14 13 14 13 12 12 12 10 9 8 8 7 7 6 7 7 7 6 5 5
5 6 4 4 4 2 3 5 6 6 7 7 6 7 8 8 9 10 12 12 13 13 14 15 15 15 14 13 12 12 10 9 7 6 6 6 6 6 9 9 10 12 11 7
6 5 5 3 2 2 3 4 5 5 6 7 7 6 8 9 9 11 13 14 15 15 16 16 16 16 14 12 12 12 10 9 6 6 6 6 5 5 5 5 7 8 9 10
5 4 1 1 2 3 3 5 5 6 6 6 6 7 9 9 11 13 14 15 15 16 16 16 16 15 13 12 12 11 9 10 8 6 5 5 5 5 4 4 3 2 3 6
4 4 3 1 1 3 4 4 5 6 7 7 6 8 10 11 13 14 14 15 15 16 16 16 15 15 13 12 12 11 8 6 5 5 4 4 4 4 4 4 4 3 2 2
4 3 3 2 3 3 4 4 5 6 6 7 7 9 11 11 13 14 15 15 16 17 17 16 15 14 14 12 11 8 7 10 8 4 3 3 3 3 3 3 3 3 4 4
4 2 1 1 2 3 3 4 4 6 6 7 9 10 11 12 13 14 15 16 15 15 14 14 15 15 14 12 10 7 6 7 9 4 2 2 2 3 3 3 3 3 4 6
6 5 5 3 1 2 3 4 5 6 6 7 9 9 10 12 14 15 16 16 16 15 13 14 16 17 14 12 9 6 5 4 3 2 1 1 2 2 2 3 3 3 3 5
7 6 5 4 2 1 2 4 5 5 6 7 8 9 10 11 12 14 15 15 15 15 16 17 21 16 14 13 13 5 5 4 3 2 0 1 1 1 2 2 3 3 5 6
6 6 5 3 2 1 3 4 4 5 5 6 8 9 10 12 13 14 14 13 11 12 17 18 16 13 13 12 14 6 4 3 3 1 0 1 1 1 2 2 3 4 5 6
6 5 4 2 1 2 3 3 3 4 6 6 7 9 10 11 12 12 13 12 13 15 18 17 12 11 12 13 12 6 3 2 2 2 1 1 2 2 2 3 3 4 4 5
5 4 3 1 1 2 3 2 2 4 5 6 7 8 9 11 12 12 11 9 13 18 15 10 11 15 17 14 7 6 4 3 3 2 2 2 2 2 3 3 3 4 4 4
5 4 3 2 2 2 2 2 3 3 4 5 7 8 9 9 8 10 12 11 12 18 14 10 17 22 20 10 7 6 6 5 4 2 2 2 2 3 3 3 3 3 4 4
5 5 4 2 1 1 1 3 3 2 3 4 5 6 7 8 8 8 8 13 17 18 12 12 18 21 16 8 7 7 6 5 4 4 3 3 3 3 3 3 3 3 4 5
6 5 3 3 2 1 1 1 2 3 4 4 6 6 5 5 7 9 10 12 16 16 12 13 17 18 12 9 9 8 7 6 5 4 3 3 3 3 3 3 3 3 3 3
6 4 4 4 4 3 2 1 1 1 2 4 5 5 6 6 8 8 9 11 14 15 12 10 12 12 10 10 10 9 8 7 6 5 4 3 2 2 3 3 4 3 3 3
5 4 3 3 2 2 2 2 1 1 1 2 4 5 6 7 8 9 10 10 11 11 11 10 10 10 10 10 10 10 9 8 7 6 5 4 3 2 3 3 3 3 3 3
Wind_Direction
282 56 75 68 59 61 74 95 114 88 120 48 20 352 336 325 320 322 324 320 306 285 269 265 265 262 257 254 253 249 243 240 240 242 241 242 243 245 247 245 248 248 250 251
354 89 92 70 46 47 59 54 77 98 83 351 341 348 332 322 317 308 295 291 289 285 277 270 265 261 257 255 252 246 241 242 242 240 239 238 239 241 241 242 244 243 242 245
325 320 82 37 15 39 46 31 76 101 280 311 328 324 308 301 296 287 286 288 286 280 269 266 263 260 260 257 255 250 246 246 243 240 240 238 239 237 234 235 234 233 238 240
353 24 37 233 19 68 94 82 76 98 299 298 289 284 282 287 286 291 292 291 287 278 273 270 267 269 268 267 263 258 256 255 252 247 244 242 239 236 234 230 227 227 231 236
85 47 170 268 12 13 320 195 33 335 312 307 301 312 297 283 282 283 284 282 280 278 279 281 281 279 280 277 273 269 265 260 257 252 252 250 244 240 235 227 227 225 224 228
76 56 247 251 307 306 360 234 287 341 318 308 326 324 291 284 284 283 285 287 289 290 291 292 289 289 288 285 282 277 273 270 264 257 252 249 246 242 237 229 231 231 232 229
78 331 260 270 310 37 61 270 289 296 295 297 289 263 274 290 293 292 294 295 296 298 297 291 292 294 289 286 280 277 276 274 271 265 261 255 247 241 237 235 235 233 235 237
90 20 273 296 54 91 234 254 278 288 289 288 280 281 290 298 301 304 305 303 302 298 294 292 293 293 289 284 282 280 277 274 270 265 265 272 252 244 237 230 231 234 236 245
174 205 226 118 140 194 211 259 282 287 292 292 296 298 303 304 306 306 305 303 302 300 302 300 296 291 290 289 289 287 282 277 275 271 263 258 250 245 242 233 230 232 227 234
109 159 160 144 152 261 281 290 296 299 302 306 305 306 310 309 309 309 306 307 307 308 306 303 299 294 289 290 289 285 282 278 273 271 267 259 251 242 237 232 227 225 222 227
133 214 152 326 327 321 335 332 324 317 311 313 316 314 311 312 312 311 309 307 307 308 307 306 305 301 296 293 289 282 277 274 271 266 262 256 248 241 236 231 220 213 217 212
210 219 196 253 276 329 352 331 321 322 322 320 321 316 318 315 310 310 313 314 314 313 312 310 308 304 301 296 292 287 281 274 266 261 257 250 250 257 246 238 238 230 228 217
173 179 178 228 305 343 333 324 326 330 326 324 324 321 320 315 313 315 316 318 318 316 314 312 310 308 306 304 300 292 283 279 269 260 255 248 241 240 251 250 241 239 233 224
151 137 129 300 299 325 333 331 337 335 327 323 321 321 321 317 317 321 320 318 317 317 316 314 313 313 313 312 307 300 290 283 279 263 252 242 236 231 225 223 224 239 235 215
149 143 167 187 3 351 344 344 345 333 325 325 323 324 323 322 322 320 319 320 320 319 319 319 318 318 319 315 310 305 298 286 277 266 252 239 229 221 218 216 209 197 158 138
144 116 94 58 11 348 346 347 340 327 325 324 325 323 320 318 318 320 323 325 326 324 323 323 323 321 320 317 315 310 303 301 299 274 251 232 215 209 204 198 195 183 164 150
143 146 115 47 0 351 345 337 328 324 324 325 322 321 323 325 325 327 328 327 323 320 320 324 325 325 323 318 315 310 307 307 312 305 255 213 199 195 189 183 181 174 165 165
150 151 145 135 121 358 341 334 326 327 322 317 321 326 329 331 330 329 328 327 326 327 330 331 329 328 324 321 318 311 309 304 305 304 280 198 180 175 172 171 169 164 146 150
130 125 117 101 91 55 332 316 317 318 318 322 326 327 326 326 326 327 329 330 333 336 336 333 328 328 327 327 330 317 318 320 323 327 14 137 148 159 159 160 159 155 143 142
128 124 112 91 67 23 320 315 322 322 320 323 328 329 330 330 330 331 331 330 332 333 330 328 328 331 331 330 333 325 322 325 338 353 47 104 124 137 139 140 137 134 138 145
135 128 115 98 11 328 322 324 326 324 321 330 333 330 327 327 330 333 334 334 334 335 333 328 333 336 333 330 328 332 341 344 358 11 46 93 105 108 110 115 120 126 130 135
148 145 141 155 292 308 311 318 324 329 334 336 333 332 333 335 335 334 332 331 330 333 334 332 338 337 336 335 339 348 355 3 10 20 42 79 102 112 113 113 116 123 125 132
164 169 175 210 239 272 319 334 334 342 342 338 334 336 335 332 333 335 335 334 334 333 334 337 338 339 341 346 350 354 359 6 14 21 41 74 91 100 110 117 122 130 135 136
175 182 195 207 176 60 349 317 328 341 340 334 333 336 338 336 335 335 327 328 335 334 337 339 341 344 348 355 357 359 2 7 11 22 47 67 83 95 103 110 115 122 129 132
181 183 182 167 158 188 231 304 353 355 347 341 339 341 342 337 332 332 334 337 340 342 344 345 347 350 356 357 360 1 1 4 12 24 46 68 82 88 93 103 115 121 123 129
183 181 180 177 174 175 173 101 33 340 344 347 341 341 342 341 339 341 342 342 344 346 350 351 353 356 358 359 1 2 3 2 12 21 28 42 64 80 95 106 115 116 123 130
180 164 153 149 154 155 138 111 96 352 353 2 347 343 344 345 346 349 348 349 350 352 352 354 357 360 1 2 4 8 10 10 12 13 15 22 33 56 81 97 102 105 105 107